Location: Austin
(30.3000°N, 97.7500°W)
Time: 00:59:05
(UTC-05:00)

Cosmos 1805 - Pass Details

Date: 11 June 2024
Orbit: 488 x 492 km, 82.5° (Epoch: 21 June)

Event Time Altitude Azimuth Distance (km) Brightness Sun altitude
Rises 21:36:35 0° 350° (N) 2,570 7.5 -12.4°
Reaches altitude 10° 21:38:43 10° 348° (NNW) 1,684 6.5 -12.8°
Maximum altitude 21:42:22 66° 266° (W) 538 3.4 -13.4°
Drops below altitude 10° 21:45:59 10° 184° (S) 1,670 5.5 -14.0°
Enters shadow 21:46:03 10° 183° (S) 1,695 5.5 -14.0°
